Location: Feigenhofen
(48.4939°N, 10.7793°E)
Time: 17:05:04
(UTC+00:00)

SL-16 R/B - Pass Details

Date: 26 May 2022
Orbit: 985 x 1006 km, 99.6° (Epoch: 28 June)

Event Time Altitude Azimuth Distance (km) Brightness Sun altitude
Exits shadow 01:14:43 14° 171° (S) 2,490 4.2 -15.4°
Maximum altitude 01:20:12 74° 255° (WSW) 1,041 2.5 -14.9°
Drops below altitude 10° 01:26:28 10° 341° (NNW) 2,785 5.4 -14.4°
Sets 01:28:59 0° 343° (NNW) 3,741 6.2 -14.1°
